Wind_Speed
4 6 14 14 16 8 6 4 7 3 3 2 7 11 14 12 5 9 9 8 8 9 10 10 11 14 13 10 7 5 7 9 12 14 14 16 18 17 21 25 26 24 24 23
4 15 6 6 5 7 5 5 4 5 6 5 7 8 9 8 7 8 9 9 11 7 5 11 14 13 12 8 4 4 6 8 9 11 12 14 15 14 15 17 22 19 19 22
6 3 13 8 6 8 5 11 4 5 4 4 4 11 7 7 7 11 10 13 13 15 15 8 12 10 8 6 4 3 4 6 7 9 11 12 13 13 13 11 11 13 15 16
7 7 6 5 9 9 11 6 5 4 0 5 2 12 8 5 8 6 10 13 16 17 8 8 10 10 9 7 4 2 2 4 5 6 7 7 9 7 4 9 9 8 6 7
7 6 12 8 7 6 4 7 7 5 4 4 3 5 5 4 6 9 16 12 10 10 8 11 12 15 10 8 5 3 1 2 4 5 4 1 4 10 11 10 11 9 8 8
7 1 6 10 6 11 6 4 3 2 3 8 10 8 6 9 14 13 7 9 9 6 8 8 15 14 11 9 7 5 2 3 2 2 3 3 8 11 14 13 11 11 10 8
4 13 3 3 7 4 7 10 1 5 4 7 3 10 17 3 7 8 9 11 7 8 10 10 9 13 13 11 9 6 4 3 2 1 3 5 6 8 10 10 9 8 7 6
9 4 13 9 7 5 14 9 5 7 5 4 4 9 6 9 10 8 12 5 6 6 6 8 10 15 15 13 11 8 6 5 4 4 4 5 6 7 7 8 8 7 7 6
6 6 1 3 4 12 5 12 6 3 3 2 5 7 8 9 10 6 6 6 10 10 9 8 10 16 16 14 13 11 10 8 7 6 6 5 6 7 8 8 9 10 10 10
5 1 4 13 3 3 8 7 5 3 3 4 6 6 9 3 8 5 5 9 8 5 7 7 8 13 15 15 14 13 12 11 10 9 8 8 9 10 11 12 12 12 12 11
2 1 1 6 11 15 5 5 5 3 6 5 2 6 7 13 9 7 8 7 6 8 8 7 9 18 18 17 17 17 16 15 13 11 10 10 11 11 12 12 12 12 12 12
8 3 5 11 2 8 15 14 16 6 6 5 8 16 3 5 6 6 7 8 8 8 7 8 12 18 21 22 21 21 18 17 15 14 13 12 12 12 12 12 12 12 12 12
14 5 2 2 4 3 8 13 11 13 2 13 9 16 12 17 14 7 6 8 7 6 7 7 10 15 19 24 25 24 23 21 19 18 17 16 15 14 13 12 12 13 13 14
16 6 9 16 4 7 8 11 17 15 8 14 14 27 15 7 8 6 4 6 5 7 9 11 9 14 20 26 30 29 26 23 23 21 20 18 16 15 14 13 14 14 14 15
8 10 17 15 1 4 8 13 15 18 23 15 22 19 25 18 14 11 13 12 5 9 10 13 13 12 21 22 28 31 31 30 28 25 22 20 18 16 15 15 15 15 16 17
7 5 4 13 9 8 5 3 14 20 20 14 22 24 27 20 12 9 12 7 9 14 16 15 16 15 20 27 29 31 36 36 31 28 26 22 20 18 17 16 17 17 17 18
10 8 5 17 7 6 9 21 17 11 16 15 16 26 23 24 21 20 16 11 17 18 13 16 18 19 28 30 35 36 35 36 34 31 28 25 23 21 19 18 18 19 20 20
6 10 5 4 5 7 7 7 22 24 24 22 19 20 25 26 24 23 10 13 14 14 17 15 15 24 30 31 33 31 35 38 36 32 30 28 26 23 22 20 20 20 20 21
5 8 6 7 6 5 7 9 8 9 18 14 21 27 25 25 21 20 21 9 12 14 14 19 26 29 27 31 34 34 33 35 33 32 32 32 30 27 26 26 24 23 22 20
5 2 5 1 4 6 9 20 8 6 6 19 17 18 20 18 12 18 22 4 8 11 18 19 24 22 25 30 36 33 32 34 34 35 35 34 31 30 29 28 27 25 23 21
5 4 14 14 9 6 13 2 6 5 12 5 6 12 13 9 14 15 4 5 5 8 17 21 14 16 22 28 34 29 30 33 31 32 33 32 31 30 29 28 28 26 23 21
7 6 7 5 7 15 4 4 9 5 5 3 2 5 8 7 7 7 9 8 7 8 11 13 10 7 12 20 25 20 23 24 31 33 33 31 30 28 28 27 26 25 24 24
3 6 5 9 7 1 4 6 3 3 4 5 3 6 8 8 8 7 8 8 7 8 7 7 6 5 8 16 23 20 21 29 31 31 30 29 28 27 27 27 24 22 23 21
3 3 3 2 4 7 9 6 5 6 8 8 5 6 5 9 9 7 7 9 7 7 7 6 6 6 6 11 13 15 22 28 31 29 29 27 25 25 26 23 23 20 20 19
5 5 6 10 15 8 11 8 8 5 4 6 4 4 5 5 8 7 8 8 7 9 10 13 13 12 12 15 15 16 21 25 22 21 24 26 23 23 21 21 22 21 21 20
6 10 7 14 7 7 13 6 3 5 4 2 3 5 3 4 8 6 9 10 9 8 11 13 14 15 15 17 20 19 20 22 23 20 19 19 21 20 19 19 16 12 14 11
Wind_Direction
185 196 204 193 199 192 181 194 215 223 247 223 239 246 250 245 246 251 248 257 259 242 252 223 188 182 178 182 196 223 252 266 278 283 280 270 267 270 262 255 254 255 255 259
155 224 199 195 197 198 190 193 233 279 264 199 275 260 246 251 234 230 240 249 244 251 203 179 175 178 180 179 183 246 275 289 296 296 292 288 275 269 277 269 255 255 256 260
200 191 187 195 188 200 218 224 188 232 325 264 309 278 244 242 226 230 233 239 243 231 235 180 181 173 163 153 165 243 297 317 317 310 297 286 273 256 252 249 225 236 242 243
244 241 185 174 208 177 224 189 183 211 0 251 100 280 251 251 256 235 249 245 244 243 222 175 163 169 168 157 166 208 304 330 335 328 317 292 260 214 181 187 182 197 191 207
223 188 209 218 217 170 203 162 186 202 227 282 219 284 277 233 270 254 251 261 240 230 181 161 167 175 164 158 165 174 166 7 2 0 355 302 151 157 158 156 154 150 155 163
221 252 195 219 189 199 166 116 115 71 186 248 224 208 205 223 233 252 250 259 251 179 143 138 162 160 158 155 164 173 143 74 43 48 77 108 130 137 141 142 142 137 138 133
196 238 278 172 163 161 175 153 163 199 216 241 263 202 250 274 274 236 253 258 236 163 153 151 156 164 166 167 172 167 152 124 132 146 147 138 141 149 145 147 144 139 131 124
196 231 206 192 206 175 198 175 162 196 207 247 196 227 257 230 250 248 238 250 144 175 165 170 170 175 173 174 176 174 171 171 181 177 162 167 168 166 159 160 162 156 149 139
181 248 248 217 167 180 190 210 175 92 23 35 234 289 290 248 263 259 256 172 192 193 191 183 175 184 181 181 183 186 188 187 184 181 168 164 156 158 153 156 157 153 144 140
218 262 201 196 146 185 179 159 185 169 227 258 255 264 238 317 241 252 218 219 209 189 183 187 190 188 191 192 191 191 197 197 192 185 175 167 162 160 157 155 151 151 147 148
286 140 355 130 203 191 163 185 206 169 191 201 267 256 225 232 229 243 245 242 225 213 203 188 192 202 201 199 197 198 199 199 194 191 185 176 167 164 163 163 157 156 152 154
180 169 209 204 290 226 222 212 196 197 246 244 252 261 318 193 130 157 229 238 225 218 186 188 200 201 203 205 202 204 202 202 201 195 189 186 181 176 173 167 162 159 155 153
179 207 151 348 276 342 212 218 221 226 63 224 230 258 221 239 275 335 294 284 251 193 188 202 204 206 206 209 211 211 207 203 203 199 195 192 191 186 180 172 166 161 157 154
173 176 217 229 200 146 206 201 216 214 222 233 227 259 257 261 271 286 311 280 232 212 208 215 216 215 211 211 212 215 210 206 205 202 199 198 195 191 184 177 170 164 161 156
188 230 224 246 133 209 211 204 215 219 230 228 250 243 263 258 257 249 244 254 215 228 227 222 223 217 216 212 214 216 213 208 205 202 200 200 197 193 187 179 172 167 163 159
214 245 194 256 226 208 244 230 224 230 240 247 248 259 266 274 261 245 246 240 222 229 230 229 227 223 215 215 210 207 209 209 204 203 202 198 193 190 187 182 176 170 164 162
199 214 190 250 167 175 232 218 227 234 239 238 244 249 263 268 266 257 255 230 238 245 237 229 225 223 224 217 210 204 202 205 204 204 201 196 193 191 189 183 176 171 166 163
201 204 199 212 155 215 225 196 215 226 235 239 247 256 256 258 269 270 262 239 242 241 245 241 232 230 228 220 208 200 198 200 198 198 198 197 194 192 188 183 181 174 170 166
209 195 229 243 224 309 301 254 193 189 247 246 240 245 252 261 275 285 269 228 232 236 240 245 248 237 227 211 202 191 187 190 187 188 192 195 195 191 188 186 183 179 172 170
114 91 206 185 231 232 230 255 165 116 258 252 236 247 255 265 268 266 278 216 250 252 253 259 265 250 220 207 198 181 182 182 187 187 190 195 197 194 188 187 183 180 174 169
176 194 217 232 243 279 250 119 79 139 249 303 213 232 248 242 241 267 357 289 312 302 303 303 294 247 227 203 187 184 182 192 188 183 189 193 194 192 190 187 183 177 167 163
181 181 216 230 240 252 117 141 184 252 298 284 249 250 256 255 297 287 294 286 297 295 305 305 298 258 219 201 188 190 193 184 180 184 185 186 188 185 187 185 181 176 174 168
265 190 189 184 220 307 219 225 204 131 215 270 241 242 231 258 268 274 283 291 283 278 278 282 259 244 227 204 199 178 182 178 178 179 180 184 183 184 186 181 174 169 172 166
263 177 202 75 249 249 263 261 249 214 231 260 250 276 241 243 260 277 292 287 275 258 253 249 216 193 194 197 200 197 181 186 182 172 170 175 173 179 182 181 177 173 176 174
194 144 203 249 268 283 262 250 259 270 245 273 276 265 267 273 278 264 279 284 259 240 216 222 207 193 186 188 186 191 193 191 174 170 169 164 171 172 169 175 176 178 186 185
195 231 222 252 247 240 276 251 193 228 241 245 312 312 322 317 295 291 284 286 280 227 215 201 203 195 191 189 182 186 192 195 180 165 167 162 159 160 158 156 145 164 179 169
Height
815 822 820 821 816 817 824 829 830 824 815 819 822 819 811 806 808 808 805 804 802 800 795 795 795 797 798 800 802 802 802 802 801 800 799 798 798 797 797 799 802 804 805 806
820 816 817 817 819 821 823 828 831 825 819 820 820 818 812 807 804 801 800 801 799 795 794 794 794 795 795 796 797 799 799 800 798 797 796 795 794 793 793 794 797 799 800 801
813 811 809 816 819 824 824 824 829 828 821 818 819 812 809 800 797 795 793 789 787 787 786 791 792 792 793 793 795 797 797 796 795 794 792 792 791 790 791 791 791 793 794 796
814 807 811 815 818 818 826 819 821 825 830 842 821 814 805 798 796 792 790 784 780 778 779 783 788 791 791 792 793 795 795 794 793 792 790 789 788 787 788 788 788 789 790 792
811 809 812 815 810 814 818 815 821 824 831 834 829 840 802 795 796 791 779 776 775 772 774 779 784 788 789 790 792 793 793 791 790 790 789 787 786 785 786 786 787 787 788 789
810 802 806 806 806 807 809 816 819 824 830 833 823 831 799 790 783 775 775 771 769 771 774 778 783 786 788 789 791 792 790 789 790 789 788 788 787 786 786 786 787 788 789 789
809 806 801 800 808 807 810 817 845 838 842 826 819 823 774 781 777 774 773 769 768 771 774 778 782 785 787 788 789 789 788 789 790 789 789 788 787 787 786 787 788 788 789 789
807 812 802 797 799 802 806 806 823 832 833 831 822 813 789 773 764 763 762 765 772 776 776 777 779 782 784 786 787 787 788 788 789 789 789 788 787 787 786 787 788 788 789 789
809 807 791 794 792 795 808 809 805 820 864 844 819 800 783 772 769 764 766 770 771 772 774 776 778 779 781 783 784 785 787 788 789 788 787 788 787 786 786 787 788 789 789 790
793 807 792 791 790 792 798 799 814 826 833 860 815 809 786 772 770 766 767 768 768 772 775 776 777 779 780 781 782 783 785 786 787 786 785 786 786 785 786 787 787 788 788 789
789 791 796 793 791 789 796 800 799 800 816 817 820 797 775 764 763 765 767 766 769 771 773 775 776 777 778 779 780 781 782 783 783 784 785 786 786 786 786 786 787 787 787 788
787 799 799 788 782 780 780 781 785 797 819 814 801 773 760 762 759 762 761 762 765 765 769 772 773 774 776 776 777 777 778 780 781 782 782 784 785 785 786 787 787 787 787 788
777 794 799 797 789 789 788 783 782 784 803 789 792 758 749 755 756 761 761 759 761 765 768 769 770 770 771 772 773 773 773 776 779 780 780 781 783 783 784 786 787 787 787 788
770 783 777 764 767 777 785 780 779 783 791 778 782 759 756 761 763 762 758 758 760 764 764 764 766 765 764 764 765 768 771 772 775 777 778 779 781 782 783 784 785 785 787 788
772 773 768 764 767 769 767 770 776 780 771 779 763 769 748 752 753 756 754 754 758 761 759 757 757 757 756 758 759 761 764 766 769 772 774 775 778 780 782 783 784 785 786 788
769 770 772 770 770 775 775 771 767 767 765 766 761 758 735 741 745 751 747 751 754 750 747 746 745 745 747 747 748 752 755 758 763 766 768 771 774 777 779 781 783 784 786 787
763 763 775 759 775 777 778 769 765 762 756 754 761 743 737 735 734 732 735 741 738 734 737 735 733 733 734 735 736 739 744 752 757 760 763 766 770 773 777 780 781 783 785 786
758 761 769 765 772 764 749 744 744 745 743 744 745 740 729 725 723 720 727 729 728 729 724 722 720 719 720 722 726 732 736 742 747 752 756 760 764 769 773 776 779 782 784 785
757 759 757 756 763 750 746 737 746 745 738 739 737 727 724 722 723 722 714 719 719 718 715 712 709 707 709 711 715 722 728 734 740 743 747 752 756 760 765 769 774 778 781 785
759 760 759 776 758 755 736 716 726 735 748 722 722 728 726 725 733 714 704 710 711 709 707 704 700 701 702 703 707 713 718 723 727 731 737 744 750 755 759 764 769 774 776 779
761 759 749 746 743 751 726 726 731 757 724 719 719 719 721 726 716 707 714 713 712 711 708 705 700 699 699 699 701 707 710 711 718 725 732 738 744 749 754 760 763 769 772 775
746 746 742 747 747 742 724 728 733 716 715 715 718 720 721 719 717 715 714 711 709 709 707 706 702 700 699 702 707 710 710 713 716 722 727 734 741 745 751 757 762 765 768 770
760 744 754 742 734 723 722 720 720 723 725 721 720 719 718 718 715 712 710 708 706 705 705 704 702 702 705 706 706 704 710 713 716 720 728 734 739 743 749 752 758 762 764 768
739 740 747 737 717 723 720 719 719 718 718 716 716 715 716 715 712 710 712 708 707 705 702 702 702 702 703 705 709 712 713 714 715 720 721 731 739 742 745 750 752 757 763 767
744 740 739 727 711 720 713 717 714 712 715 716 716 717 715 716 714 715 710 708 705 702 701 701 701 700 701 703 707 710 713 717 720 723 723 721 731 739 743 746 748 753 760 764
731 719 728 713 714 716 706 709 712 714 713 715 717 716 717 718 717 715 710 705 701 700 699 699 699 700 702 702 700 703 709 717 718 721 726 726 728 735 741 746 750 754 759 763